This demonstration page uses our WeatherBlox Daily Observations layout. Learn more.

Left ArrowRight Arrow

39.01783, -85.05884

Hourly Observations for October 15, 2021

Temp ( °F °C ) Dew Point ( °F °C ) Humidity (%) Winds ( mph kmh ) Pressure ( in mb ) Visibility ( mi km ) Precip ( " mm )
12:52 am 00:52 Mostly Cloudy 71 21.7 64 17.8 79 79 S 7 11 29.88 1012 10 16 N/A
1:52 am 01:52 Mostly Cloudy 71 21.7 64 17.8 79 79 SSW 8 13 29.87 1012 10 16 N/A
2:52 am 02:52 Mostly Cloudy 70 21.1 64 17.8 82 82 S 7 11 29.88 1012 9 14 N/A
3:52 am 03:52 Cloudy 68 20 64 17.8 87 87 S 6 9 29.87 1012 9 14 N/A
4:52 am 04:52 Mostly Cloudy 68 20 64 17.8 87 87 S 7 11 29.86 1011 8 13 N/A
5:52 am 05:52 Mostly Cloudy 68 20 64 17.8 87 87 S 7 11 29.85 1011 8 13 N/A
6:52 am 06:52 Partly Cloudy 68 20 63 17.2 84 84 S 8 13 29.86 1011 9 14 N/A
7:52 am 07:52 Mostly Cloudy 68 20 63 17.2 84 84 S 7 11 29.85 1011 8 13 N/A
8:52 am 08:52 Partly Cloudy 69 20.6 64 17.8 84 84 S 10 17 29.86 1011 7 11 N/A
9:52 am 09:52 Cloudy 70 21.1 64 17.8 82 82 S 10 17 29.86 1011 8 13 N/A
10:52 am 10:52 Cloudy 70 21.1 63 17.2 79 79 S 9 15 29.86 1011 8 13 N/A
11:52 am 11:52 Cloudy with Light Rain 69 20.6 65 18.3 87 87 SSW 10 17 29.87 1011 5 8 0.01 0.25
12:19 pm 12:19 Cloudy with Light Rain 69 20.6 64 17.8 84 84 SSW 12 19 29.87 1011 7 11 0.01 0.25
12:34 pm 12:34 Cloudy 68 20 64 17.8 87 87 SSW 10 17 29.87 1011 8 13 0.01 0.25
12:52 pm 12:52 Cloudy with Mist and Fog 68 20 65 18.3 90 90 SSW 8 13 29.86 1011 6 10 0.01 0.25
1:01 pm 13:01 Cloudy with Mist and Fog 69 20.6 65 18.3 87 87 S 8 13 29.87 1011 5 8 N/A
1:52 pm 13:52 Cloudy with Mist and Fog 70 21.1 66 18.9 87 87 SSW 12 19 29.84 1011 6 10 N/A
2:52 pm 14:52 Cloudy with Haze 71 21.7 66 18.9 84 84 SW 10 17 29.83 1010 6 10 0.00 0.00
3:52 pm 15:52 Cloudy with Light Rain 70 21.1 66 18.9 87 87 SSW 8 13 29.81 1010 6 10 0.00 0.00
4:05 pm 16:05 Cloudy 70 21.1 66 18.9 87 87 S 10 17 29.80 1009 8 13 0.00 0.00
4:26 pm 16:26 Cloudy 70 21.1 66 18.9 87 87 S 9 15 29.80 1009 10 16 0.00 0.00
4:52 pm 16:52 Cloudy 70 21.1 66 18.9 87 87 SSW 8 13 29.81 1009 10 16 0.00 0.00
5:10 pm 17:10 Cloudy 71 21.7 66 18.9 84 84 SW 9 15 29.80 1009 10 16 N/A
5:52 pm 17:52 Cloudy 70 21.1 65 18.3 84 84 SW 8 13 29.80 1009 10 16 N/A
6:04 pm 18:04 Mostly Cloudy 70 21.1 65 18.3 84 84 SW 7 11 29.79 1009 10 16 N/A
6:52 pm 18:52 Partly Cloudy 69 20.6 65 18.3 87 87 SSW 9 15 29.79 1009 9 14 N/A
7:52 pm 19:52 Mostly Cloudy 68 20 65 18.3 90 90 SSW 10 17 29.79 1009 8 13 N/A
8:27 pm 20:27 Cloudy 68 20 65 18.3 90 90 SSW 8 13 29.79 1009 7 11 N/A
8:52 pm 20:52 Cloudy with Mist and Fog 68 20 66 18.9 93 93 SSW 7 11 29.78 1009 6 10 N/A
9:03 pm 21:03 Cloudy with Mist and Fog 68 20 65 18.3 90 90 SSW 8 13 29.79 1009 6 10 N/A
9:52 pm 21:52 Cloudy with Mist and Fog 68 20 66 18.9 93 93 S 8 13 29.76 1008 6 10 N/A
10:05 pm 22:05 Cloudy with Mist and Fog 68 20 65 18.3 90 90 SSW 5 7 29.76 1008 6 10 N/A
10:10 pm 22:10 Cloudy with Mist and Fog 68 20 65 18.3 90 90 SSW 7 11 29.76 1008 6 10 N/A
10:42 pm 22:42 Cloudy with Light Rain 68 20 64 17.8 87 87 N 7 11 29.75 1007 7 11 0.01 0.25
10:52 pm 22:52 Cloudy 67 19.4 63 17.2 87 87 N 9 15 29.74 1007 10 16 0.01 0.25
11:02 pm 23:02 Cloudy with Thunderstorms 67 19.4 62 16.7 84 84 N 7 11 29.75 1007 9 14 N/A
11:15 pm 23:15 Cloudy with Thunderstorms 66 18.9 62 16.7 87 87 NE 15 24 29.70 1006 6 10 0.03 0.76
11:25 pm 23:25 Cloudy with Strong Thunderstorms 66 18.9 62 16.7 87 87 WNW 21 33 29.76 1008 6 10 0.06 1.52
11:29 pm 23:29 Cloudy with Strong Thunderstorms 65 18.3 62 16.7 90 90 WSW 20 31 29.80 1009 4 6 0.08 2.03
11:36 pm 23:36 Cloudy with Strong Thunderstorms 64 17.8 61 16.1 90 90 NNW 16 26 29.76 1008 0 0 0.60 15.24
11:41 pm 23:41 Cloudy with Strong Thunderstorms 63 17.2 60 15.6 90 90 NNW 13 20 29.78 1008 1 1 0.88 22.35
11:45 pm 23:45 Cloudy with Strong Thunderstorms 63 17.2 60 15.6 90 90 NW 9 15 29.78 1008 2 3 0.99 25.15
11:52 pm 23:52 Cloudy with Strong Thunderstorms 63 17.2 60 15.6 90 90 NNW 14 22 29.77 1008 2 3 1.05 26.67

Powered by AerisWeather